Change the Weather History Date:

Thursday, March 6, 2014

  Actual Average (KITH) Record (KITH)
Temperature  
Mean Temperature 13 °F -  
Max Temperature 28 °F 40 °F 69 °F (1976)
Min Temperature -2 °F 22 °F -9 °F (2015)
Degree Days  
Heating Degree Days 52    
Moisture  
Dew Point 1 °F    
Average Humidity 57    
Maximum Humidity 84    
Minimum Humidity 34    
Precipitation  
Precipitation 0.00 in - - ()
Sea Level Pressure  
Sea Level Pressure 30.53 in    
Wind  
Wind Speed 3 mph (SE)    
Max Wind Speed 12 mph    
Max Gust Speed -    
Visibility 10 miles    
Events      
Averages and records for this station are not official NWS values.
T = Trace of Precipitation, MM = Missing Value Source: NWS Daily Summary

Daily Weather History Graph

Daily Weather History Graph

Search for Another Location

Airport or City:

Trip Planner

Search our weather history database for the weather conditions in past years. The results will help you decide how hot, cold, wet, or windy it might be!

Date:

Astronomy

Mar. 06, 2014 Rise Set
Actual Time 6:35 AM EST 6:03 PM EST
Civil Twilight 6:07 AM EST 6:32 PM EST
Nautical Twilight 5:34 AM EST 7:04 PM EST
Astronomical Twilight 5:02 AM EST 7:37 PM EST
Moon 9:34 AM EST (3/6) No Moon Set
Length of Visible Light 12h 24m
Length of Day
11h 28m
Waxing Crescent, 32% of the Moon is Illuminated
Mar 6
Waxing Crescent
Mar 8
First Quarter
Mar 16
Full
Mar 23
Last Quarter
Mar 30
New

Hourly Weather History & Observations

Time (EST) Temp. Windchill Dew Point Humidity Pressure Visibility Wind Dir Wind Speed Gust Speed Precip Events Conditions
12:53 AM 8.1 °F - -0.9 °F 67% 30.59 in 10.0 mi Calm Calm - N/A   Clear
1:53 AM 3.0 °F - -4.0 °F 73% 30.61 in 10.0 mi Calm Calm - N/A   Clear
2:53 AM 1.0 °F - -4.0 °F 79% 30.61 in 10.0 mi Calm Calm - N/A   Clear
3:53 AM -2.0 °F - -7.1 °F 79% 30.61 in 10.0 mi Calm Calm - N/A   Clear
4:53 AM 1.0 °F - -4.0 °F 79% 30.62 in 10.0 mi Calm Calm - N/A   Clear
5:53 AM -0.0 °F - -5.1 °F 79% 30.64 in 10.0 mi Calm Calm - N/A   Clear
6:53 AM -0.0 °F - -5.1 °F 79% 30.65 in 10.0 mi Calm Calm - N/A   Clear
7:53 AM 3.9 °F -3.4 °F -0.0 °F 84% 30.66 in 10.0 mi WSW 3.5 mph - N/A   Clear
8:53 AM 9.0 °F - 1.9 °F 73% 30.67 in 10.0 mi Calm Calm - N/A   Clear
9:53 AM 14.0 °F - 5.0 °F 67% 30.65 in 10.0 mi Calm Calm - N/A   Clear
10:53 AM 18.0 °F 8.7 °F 3.9 °F 54% 30.61 in 10.0 mi East 6.9 mph - N/A   Clear
11:53 AM 19.9 °F 12.1 °F 1.9 °F 46% 30.58 in 10.0 mi SE 5.8 mph - N/A   Clear
12:53 PM 21.9 °F 14.5 °F 3.0 °F 44% 30.55 in 10.0 mi Variable 5.8 mph - N/A   Clear
1:53 PM 25.0 °F 17.1 °F 3.9 °F 41% 30.52 in 10.0 mi Variable 6.9 mph - N/A   Clear
2:53 PM 26.1 °F 18.4 °F 5.0 °F 41% 30.49 in 10.0 mi ENE 6.9 mph - N/A   Clear
3:53 PM 28.0 °F 20.8 °F 3.0 °F 34% 30.47 in 10.0 mi ENE 6.9 mph - N/A   Clear
4:53 PM 27.0 °F 20.5 °F 6.1 °F 41% 30.45 in 10.0 mi Variable 5.8 mph - N/A   Clear
5:53 PM 25.0 °F 19.3 °F 7.0 °F 46% 30.44 in 10.0 mi ENE 4.6 mph - N/A   Clear
6:53 PM 23.0 °F 15.8 °F 6.1 °F 48% 30.43 in 10.0 mi ESE 5.8 mph - N/A   Clear
7:53 PM 24.1 °F 15.2 °F 1.9 °F 38% 30.41 in 10.0 mi SE 8.1 mph - N/A   Clear
8:53 PM 21.9 °F 12.5 °F 3.9 °F 46% 30.40 in 10.0 mi SSE 8.1 mph - N/A   Clear
9:53 PM 24.1 °F 14.4 °F 3.0 °F 40% 30.39 in 10.0 mi South 9.2 mph - N/A   Clear
10:53 PM 21.0 °F 9.3 °F 1.9 °F 44% 30.37 in 10.0 mi South 11.5 mph - N/A   Clear
11:53 PM 19.9 °F 8.6 °F 1.9 °F 46% 30.35 in 10.0 mi South 10.4 mph - N/A   Clear